SCP
0 0 0 0 0 0 0 0 0 0 0 0 0 0 0 0 0 0 0 0 0 0 0 0 0 0 0 0 0 0 0 0 0 0 0 0 0 0 0 0 0 0 0
0 0 0 0 0 0 0 0 0 0 0 0 0 0 0 0 0 0 0 0 0 0 0 0 0 0 0 0 0 0 0 0 0 0 0 0 0 0 0 0 0 0 0
0 0 0 0 0 0 0 0 0 0 0 0 0 0 0 0 0 0 0 0 0 0 0 0 0 0 0 0 0 0 0 0 0 0 0 0 0 0 0 0 0 0 0
0 0 0 0 0 0 0 0 0 0 0 0 0 0 0 0 0 0 0 0 0 0 0 0 0 0 0 0 0 0 0 0 0 0 0 0 0 0 0 0 0 0 0
0 0 0 0 0 0 0 0 0 0 0 0 0 0 0 0 0 0 0 0 0 0 0 0 0 0 0 0 0 0 0 0 0 0 0 0 0 0 0 0 0 0 0
0 0 0 0 0 0 0 0 0 0 0 0 0 0 0 0 0 0 0 0 0 0 0 0 0 0 0 0 0 0 0 0 0 0 0 0 0 0 0 0 0 0 0
0 0 0 0 0 0 0 0 0 0 0 0 0 0 0 0 0 0 0 0 0 0 0 0 0 0 0 0 0 0 0 0 0 0 0 0 0 0 0 0 0 0 0
0 0 0 0 0 0 0 0 0 0 0 0 0 0 0 0 0 0 0 0 0 0 0 0 0 0 0 0 0 0 0 0 0 0 0 0 0 0 0 0 0 0 0
0 0 0 0 0 0 0 0 0 0 0 0 0 0 0 0 0 0 0 0 0 0 0 0 0 0 0 0 0 0 0 0 0 0 0 0 0 0 0 0 0 0 0
0 0 0 0 0 0 0 0 0 0 0 0 0 0 0 0 0 0 0 0 0 0 0 0 0 0 0 0 0 0 0 0 0 0 0 0 0 0 0 0 0 0 0
0 0 0 0 0 0 0 0 0 0 0 0 0 0 0 0 0 0 0 0 0 0 0 0 0 0 0 0 0 0 0 0 0 0 0 0 0 0 0 0 0 0 0
0 0 0 0 0 0 0 0 0 0 0 0 0 0 0 0 0 0 0 0 0 0 0 0 0 0 0 0 0 0 0 0 0 0 0 0 0 0 0 0 0 0 0
0 0 0 0 0 0 0 0 0 0 0 0 0 0 0 0 0 0 0 0 0 0 0 0 0 0 0 0 0 0 0 0 0 0 0 0 0 0 0 0 0 0 0
0 0 0 0 0 0 0 0 0 0 0 0 0 0 0 0 0 0 0 0 0 0 0 0 0 0 1 0 0 0 0 0 0 0 0 0 0 0 0 0 0 0 0
0 0 0 0 0 0 0 0 0 0 0 0 0 0 0 0 0 0 0 0 0 0 0 0 0 1 1 0 0 0 0 0 0 0 0 0 0 0 0 0 0 0 0
0 0 0 0 0 0 0 0 0 0 0 0 0 0 0 0 0 0 0 0 0 0 0 0 0 0 0 0 0 0 0 0 0 0 0 0 0 0 0 0 0 0 0
0 0 0 0 0 0 0 0 0 0 0 0 0 0 0 0 0 0 0 0 0 0 0 0 0 0 0 0 0 0 0 0 0 0 0 0 0 0 0 0 0 0 0
0 0 0 0 0 0 0 0 0 0 0 0 0 0 0 0 0 0 0 0 0 0 0 0 0 0 0 0 0 0 0 0 0 0 0 0 0 0 0 0 0 0 0
0 0 0 0 0 0 0 0 0 0 0 0 0 0 0 0 0 0 0 0 0 0 0 0 0 0 0 0 0 0 0 0 0 0 0 0 0 0 0 0 0 0 0
0 0 0 0 0 0 0 0 0 0 0 0 0 0 0 0 0 0 0 0 0 0 0 0 0 0 0 0 0 0 0 0 0 0 0 0 0 0 0 0 0 0 0
0 0 0 0 0 0 0 0 0 0 0 0 0 0 0 0 0 0 0 0 0 0 0 0 0 0 0 0 0 0 0 0 0 0 0 0 0 0 0 0 0 0 0
0 0 0 0 0 0 0 0 0 0 0 0 0 0 0 0 0 0 0 0 0 0 0 0 0 0 0 0 0 0 0 0 0 0 0 0 0 0 0 0 0 0 0
0 0 0 0 0 0 0 0 0 0 0 0 0 0 0 0 0 0 0 0 0 0 0 0 0 0 0 0 0 0 0 0 0 0 0 0 0 0 0 0 0 0 0
0 0 0 0 0 0 0 0 0 0 0 0 0 0 0 0 0 0 0 0 0 0 0 0 0 0 0 0 0 0 0 0 0 0 0 0 0 0 0 0 0 0 0
0 0 0 0 0 0 0 0 0 0 0 0 0 0 0 0 0 0 0 0 0 0 0 0 0 0 0 0 0 0 0 0 0 0 0 0 0 0 0 0 0 0 0
0 0 0 0 0 0 0 0 0 0 0 0 0 0 0 0 0 0 0 0 0 0 0 0 0 0 0 0 0 0 0 0 0 0 0 0 0 0 0 0 0 0 0
Wind_Speed
3 4 9 9 8 7 6 6 5 5 4 4 4 4 4 5 5 5 5 5 5 5 5 5 5 5 6 6 5 6 6 6 6 5 5 5 5 6 6 7 7 5 8
6 6 9 9 8 7 6 5 4 4 3 3 3 3 3 3 3 3 3 3 3 3 3 3 4 4 4 4 4 5 5 5 5 4 3 3 4 5 6 6 6 4 7
7 6 7 8 8 7 6 5 4 3 3 2 2 2 3 3 2 2 2 2 2 2 2 2 2 2 2 3 3 4 4 4 4 4 2 1 2 5 6 6 7 7 7
7 6 6 8 7 6 5 4 4 3 3 2 2 2 3 3 3 2 2 2 2 2 2 1 1 1 1 1 2 3 4 5 5 4 1 2 2 5 6 6 7 7 7
6 4 5 8 7 6 5 3 3 3 2 3 3 3 3 4 4 4 4 4 4 4 3 3 2 2 1 1 1 3 4 5 5 3 1 2 2 5 6 6 7 7 7
5 4 4 7 6 5 4 3 2 2 2 2 3 3 4 5 5 6 6 6 6 5 5 5 4 4 3 3 2 3 4 5 4 1 1 2 2 5 6 6 6 6 7
5 3 4 6 5 4 3 2 1 1 1 2 3 3 4 5 6 7 7 7 7 7 6 6 6 6 5 5 4 4 4 5 1 0 2 3 4 7 7 7 6 6 6
5 3 2 4 3 2 1 1 1 2 2 3 4 4 5 5 6 7 7 8 8 8 8 8 8 7 7 7 6 5 5 4 2 1 1 3 6 8 8 7 7 7 7
4 3 1 0 0 1 1 2 3 4 4 4 5 5 5 6 6 7 8 8 8 9 9 9 9 9 9 8 8 7 6 5 1 1 3 3 7 9 8 8 7 7 7
3 2 1 0 1 2 3 4 4 5 6 6 6 6 6 7 7 8 8 9 9 9 9 10 10 10 10 10 9 8 7 5 2 2 2 4 9 10 10 9 8 8 8
2 1 1 1 1 2 2 3 4 5 6 6 6 7 6 3 4 5 7 9 9 9 10 10 11 11 11 9 10 9 7 2 2 2 3 7 10 11 11 10 9 8 8
1 1 1 1 1 2 2 2 2 3 3 3 3 4 3 3 3 4 6 8 8 9 10 10 11 11 8 3 6 7 3 3 3 3 4 10 11 12 12 11 10 9 9
2 1 1 1 2 2 2 1 1 1 2 3 3 3 3 2 2 2 2 3 4 6 4 5 5 4 3 3 3 3 3 3 3 3 5 12 13 13 13 12 11 10 10
2 1 1 1 2 2 2 2 1 1 2 2 2 2 1 2 2 2 2 2 2 2 2 2 2 3 3 4 4 4 4 3 3 3 5 12 14 14 14 13 12 11 11
3 1 0 1 2 2 2 2 2 2 2 2 2 2 1 1 2 2 2 2 2 2 2 2 2 3 3 3 4 4 4 4 4 4 4 12 14 14 15 14 13 13 12
3 1 0 1 2 2 2 2 2 2 2 2 2 2 2 1 1 2 2 2 2 2 2 2 2 3 3 3 3 3 3 4 4 4 4 7 13 14 14 15 14 14 13
3 1 1 2 2 2 2 3 2 2 2 2 2 2 2 1 1 1 2 2 2 2 2 1 2 2 2 2 3 3 3 4 4 4 4 4 5 11 13 14 15 15 14
4 3 2 3 2 2 2 2 2 2 2 2 2 2 2 2 2 1 1 2 3 2 1 1 1 1 2 2 2 2 2 1 3 4 3 3 3 4 8 12 13 14 15
4 3 2 2 2 2 2 2 3 2 2 2 2 2 2 3 2 1 2 2 2 1 1 2 1 1 1 2 2 2 2 1 2 3 3 4 3 3 3 8 11 13 14
4 4 3 2 2 2 2 2 3 3 3 3 2 3 3 2 2 1 2 2 2 1 1 1 1 1 1 2 2 1 1 2 2 3 4 4 3 4 4 4 5 8 12
4 3 2 2 2 1 1 2 2 3 3 3 3 3 3 3 2 1 1 2 2 1 2 2 1 1 1 1 0 1 2 1 2 2 3 3 4 4 4 4 4 4 5
3 2 2 1 1 1 1 1 2 2 3 3 3 4 3 3 3 2 1 2 2 1 1 1 0 0 1 1 1 1 1 2 1 2 2 3 4 3 4 5 5 5 4
3 2 2 1 1 2 2 2 2 2 3 3 4 4 4 4 3 2 2 2 1 1 1 1 1 1 1 1 1 2 2 2 1 1 1 2 3 3 3 4 5 5 6
3 3 3 1 0 2 2 2 2 2 2 3 3 3 5 4 3 2 2 2 1 1 1 2 1 1 1 1 1 1 2 2 1 1 1 1 2 3 3 4 4 5 5
4 3 2 1 1 2 2 2 2 1 2 3 3 4 4 4 4 3 2 2 2 1 1 1 1 1 1 2 1 1 0 0 1 2 1 1 0 1 2 3 3 4 5
3 2 2 1 1 2 2 2 1 2 2 3 4 4 4 3 3 4 3 2 2 2 2 2 1 1 2 2 1 2 2 1 1 2 1 1 1 1 1 2 2 3 4
Wind_Direction
160 167 147 140 133 128 124 121 121 120 118 117 115 112 102 98 98 99 94 86 81 78 71 63 57 56 56 49 45 47 49 52 50 52 59 68 75 81 84 86 92 89 92
154 159 144 144 140 137 133 130 132 132 130 128 129 129 124 120 119 119 107 98 91 87 84 74 59 57 54 46 37 36 38 38 37 35 48 69 87 92 93 93 103 102 101
138 144 140 143 141 140 141 139 139 147 150 152 157 155 156 158 162 158 146 151 137 118 112 101 77 71 60 47 27 20 19 14 14 15 43 114 114 109 104 103 105 105 105
134 137 136 134 130 132 138 142 145 150 163 177 187 188 191 196 203 210 213 211 203 193 184 179 157 116 89 49 14 1 357 357 9 18 63 144 140 120 113 111 111 110 107
123 124 131 130 132 133 137 146 149 152 169 186 198 207 216 220 224 229 231 229 224 217 215 211 203 193 195 229 329 337 340 347 4 29 77 129 129 130 120 115 114 115 115
126 126 131 128 129 134 143 151 160 175 195 208 213 218 226 230 233 234 234 233 231 227 222 216 211 210 215 231 264 300 321 337 0 39 120 152 154 146 134 125 123 124 123
133 142 136 128 126 126 134 143 163 197 233 245 248 245 248 249 245 240 237 237 234 232 227 221 218 218 220 229 246 267 295 322 357 72 176 177 172 155 144 137 133 133 129
138 143 134 131 129 135 163 186 247 267 265 266 267 264 261 262 263 257 248 244 240 236 232 225 223 224 224 228 236 250 270 293 335 352 201 189 176 160 151 147 145 142 139
123 122 116 109 154 208 243 252 263 280 285 285 282 275 270 267 268 269 264 255 246 240 234 228 226 226 226 228 234 244 259 273 282 254 224 201 182 168 159 155 151 150 146
113 114 126 184 306 301 293 279 284 294 291 291 291 292 289 282 273 271 271 265 253 245 240 234 231 229 228 229 234 243 254 268 254 256 223 204 188 172 164 161 157 155 150
98 94 91 53 335 296 281 282 295 302 306 302 299 298 295 289 280 275 272 270 258 251 245 240 237 233 230 232 236 243 252 234 228 237 223 210 191 177 169 164 162 159 158
115 93 70 53 16 350 337 339 313 309 311 303 293 293 289 278 273 279 276 276 269 263 252 245 239 236 231 226 241 247 237 226 224 229 225 214 196 182 173 170 166 163 162
155 105 63 43 22 14 343 333 321 318 314 312 304 296 292 291 289 285 279 282 283 278 265 253 244 231 217 209 222 229 227 224 222 226 225 213 198 186 178 174 171 168 167
116 104 41 34 28 7 360 335 323 320 308 308 309 312 313 306 298 289 272 273 270 266 253 244 236 233 226 222 223 229 230 223 222 216 221 214 200 190 182 178 175 171 169
108 104 41 51 45 17 9 342 353 325 306 301 310 315 327 317 307 304 290 274 270 267 253 244 237 232 230 229 232 232 229 228 231 221 216 213 202 192 186 181 178 176 173
120 137 118 60 45 38 17 342 329 329 325 330 325 321 322 313 310 312 308 296 278 264 256 241 235 235 232 225 236 238 235 227 229 219 206 210 203 193 188 184 181 180 178
139 116 65 81 46 34 8 345 346 336 342 341 328 324 327 325 317 304 299 300 286 275 267 261 260 246 241 231 235 241 239 222 210 203 200 197 199 199 192 188 185 184 182
120 96 60 53 44 16 358 342 333 333 336 323 320 321 324 317 315 318 304 287 290 294 283 264 249 255 252 241 239 253 250 215 196 191 189 191 192 197 200 195 191 189 187
124 109 83 60 37 3 348 338 331 327 326 314 317 316 310 307 306 306 296 288 300 305 286 272 249 231 246 248 238 238 235 205 188 181 178 188 192 188 193 201 196 195 192
114 104 93 60 25 8 353 346 340 336 325 321 316 302 303 303 302 304 292 298 306 316 302 284 257 251 238 239 257 263 247 213 186 182 184 186 194 197 194 196 193 200 200
99 89 78 51 4 9 355 344 331 319 316 322 318 309 308 306 305 295 294 300 301 276 272 273 244 242 251 181 127 321 309 254 205 192 180 178 196 202 194 197 191 188 200
119 102 83 51 9 350 306 280 267 281 292 297 311 324 320 315 310 301 290 285 281 274 295 289 214 193 248 166 149 126 328 330 304 202 175 187 196 192 194 199 194 191 192
128 120 104 82 22 337 326 329 341 348 336 337 333 329 322 322 319 309 307 298 290 248 260 258 215 172 221 265 177 161 167 221 283 303 197 191 185 189 194 196 196 194 192
156 140 129 121 346 330 347 6 357 349 322 297 301 308 318 326 325 319 323 324 305 278 259 260 214 181 171 199 283 214 191 181 170 300 312 213 189 189 194 203 197 193 194
156 148 144 120 337 334 354 12 15 351 299 302 319 331 333 333 337 338 331 337 327 302 270 269 270 202 179 181 190 202 197 153 159 164 250 288 266 221 205 204 194 191 196
155 147 141 122 315 326 347 4 20 350 334 342 340 338 332 328 328 331 330 332 320 310 287 268 253 221 205 190 190 188 183 181 189 164 187 231 247 250 220 204 196 196 196